TITAN 3C TRANSTAGE DEB, 5992

Orbit data source: Space-Track

TITAN 3C TRANSTAGE DEB, 5992 is space debris in HEO originally from a launch on Tue, 21 Dec 1965 UTC launched from the Air Force Eastern Test Range (AFETR). Debris objects in space refer to the collection of defunct objects orbiting the Earth. Examples of debris include non-operational satellites, rocket bodies, and fragments generated from explosions, collisions, or faulty payload assembly.

Loading next visibility...
Identifier
5992, 1965-108S
Orbit
HEO
Country
Flag of USUS
Related business
Manufacturer
Unknown
Mission
Spacecraft
Bus & Motor
Unknown
Mass
Unknown
Launch date (UTC)
1965-12-21 (60 years ago)
Launch vehicle
Unknown
Launch site
Air Force Eastern Test Range (AFETR)
Object type
Payload
Rocket body
Debris
Shape & HBR
Unknown
Radar Cross Section
Small (<0.1 m²)

Expand to show TLE details & history
Last TLE update: 17 hours ago

TLE from 17 hours ago
0 TITAN 3C TRANSTAGE DEB
1 05992U 65108S   25342.53302199  .00000014  00000-0  58286-2 0  9999
2 05992  26.8512 151.5385 6610412  33.0679 354.7098  2.66165236 11833
Epoch: 2025-12-08T12:47Z
TLE epoch observation values (Epoch: 2025-12-08T12:47:33.099Z)
Latitude
-0.00008°
Longitude
-117.94625°
Altitude
1,602.971 km
Speed
9.042 km/s
True Right ascension
10h 05m 53s
True Declination
0° 00' 00"
Sunlit
Object was in daylight at epoch
Visualization orbit readout
Latitude
Unknown
Longitude
Unknown
Altitude
Unknown
Speed
Unknown
Apparent Right ascension
Unknown
Apparent Declination
Unknown
Sunlit
N/A
Visualization observer readout
Local Sidereal Time
03:32:12
Azimuth
Unknown
Elevation
Unknown
Doppler factor
Unknown
Orbital elements
Apogee altitude
30,160.015 km
Perigee altitude
1,077.986 km
Semi-major axis
21,997.138 km
Eccentricity
0.66104
Inclination
26.8512°
RAAN
151.5385°
Arg. of periapsis
33.0679°
True anomaly
326.97122°
Mean anomaly
354.7098°
Eccentric anomaly
344.74317°
Mean motion
0.66526 °/min
Orbital period
541.14 mins
BSTAR
0.0058286
Loading maneuver chart data...
Computing Atmospheric mass density...

Documentation

Showing up to 5 results
|